Time,TemperatureF,DewpointF,PressureIn,WindDirection,WindDirectionDegrees,WindSpeedMPH,WindSpeedGustMPH,Humidity,HourlyPrecipIn,Conditions,Clouds,dailyrainin,SoftwareType,DateUTC
2013-01-21 00:01:00,36.3,28.8,29.75,NW,315,1.2,0.0,74,0.00,CLR,,0.00,WeatherDisplay:10.37,2013-01-21 05:01:00,
2013-01-21 00:03:00,36.5,29.3,29.75,West,270,2.3,2.3,75,0.00,CLR,,0.00,WeatherDisplay:10.37,2013-01-21 05:03:00,
2013-01-21 00:05:00,36.3,29.5,29.75,NW,315,2.3,2.3,76,0.00,CLR,,0.00,WeatherDisplay:10.37,2013-01-21 05:05:00,
2013-01-21 00:10:00,36.5,30.3,29.75,NW,315,2.3,2.3,78,0.00,CLR,,0.00,WeatherDisplay:10.37,2013-01-21 05:10:00,
2013-01-21 00:15:00,37.4,32.4,29.75,SW,225,2.3,2.3,82,0.00,CLR,,0.00,WeatherDisplay:10.37,2013-01-21 05:15:00,
2013-01-21 00:20:00,37.9,32.3,29.74,West,270,3.5,3.5,80,0.00,CLR,,0.00,WeatherDisplay:10.37,2013-01-21 05:20:00,
2013-01-21 00:25:00,40.1,32.8,29.75,NW,315,5.8,5.8,75,0.00,CLR,,0.00,WeatherDisplay:10.37,2013-01-21 05:25:00,
2013-01-21 00:30:00,42.8,32.2,29.74,NW,315,5.8,5.8,66,0.00,CLR,,0.00,WeatherDisplay:10.37,2013-01-21 05:30:00,
2013-01-21 00:35:00,44.6,31.1,29.74,NW,315,5.8,5.8,59,0.00,CLR,,0.00,WeatherDisplay:10.37,2013-01-21 05:35:00,
2013-01-21 00:40:00,45.5,30.7,29.74,South,180,5.8,5.8,56,0.00,CLR,,0.00,WeatherDisplay:10.37,2013-01-21 05:40:00,
2013-01-21 00:45:00,43.7,30.3,29.74,East,90,3.5,3.5,59,0.00,CLR,,0.00,WeatherDisplay:10.37,2013-01-21 05:45:00,
2013-01-21 00:50:00,42.1,30.4,29.74,NW,315,3.5,3.5,63,0.00,CLR,,0.00,WeatherDisplay:10.37,2013-01-21 05:50:00,
2013-01-21 00:55:00,41.7,30.4,29.74,North,0,2.3,2.3,64,0.00,CLR,,0.00,WeatherDisplay:10.37,2013-01-21 05:55:00,
2013-01-21 01:00:00,41.2,30.7,29.73,NW,315,2.3,2.3,66,0.00,CLR,,0.00,WeatherDisplay:10.37,2013-01-21 06:00:00,
2013-01-21 01:05:00,41.0,30.1,29.73,NW,315,0.0,0.0,65,0.00,CLR,,0.00,WeatherDisplay:10.37,2013-01-21 06:05:00,
2013-01-21 01:11:00,40.3,30.2,29.74,NW,315,1.2,1.2,67,0.00,CLR,,0.00,WeatherDisplay:10.37,2013-01-21 06:11:00,
2013-01-21 01:16:00,39.4,29.7,29.73,West,270,0.0,0.0,68,0.00,CLR,,0.00,WeatherDisplay:10.37,2013-01-21 06:16:00,
2013-01-21 01:21:00,38.8,29.9,29.73,NW,315,1.6,0.0,70,0.00,CLR,,0.00,WeatherDisplay:10.37,2013-01-21 06:21:00,
2013-01-21 01:26:00,38.5,30.2,29.73,West,270,3.5,3.5,72,0.00,CLR,,0.00,WeatherDisplay:10.37,2013-01-21 06:26:00,
2013-01-21 01:31:00,39.2,30.6,29.73,West,270,1.6,1.6,71,0.00,CLR,,0.00,WeatherDisplay:10.37,2013-01-21 06:31:00,
2013-01-21 01:36:00,39.0,30.4,29.73,West,270,1.2,0.0,71,0.00,CLR,,0.00,WeatherDisplay:10.37,2013-01-21 06:36:00,
2013-01-21 01:41:00,38.5,30.2,29.74,West,270,1.2,0.0,72,0.00,CLR,,0.00,WeatherDisplay:10.37,2013-01-21 06:41:00,
2013-01-21 01:46:00,37.8,29.5,29.74,West,270,0.0,0.0,72,0.00,CLR,,0.00,WeatherDisplay:10.37,2013-01-21 06:46:00,
2013-01-21 01:51:00,37.4,29.5,29.73,NW,315,1.2,0.0,73,0.00,CLR,,0.00,WeatherDisplay:10.37,2013-01-21 06:51:00,
2013-01-21 01:56:00,37.2,28.3,29.74,NW,315,0.0,0.0,70,0.00,CLR,,0.00,WeatherDisplay:10.37,2013-01-21 06:56:00,
2013-01-21 02:01:00,37.0,28.2,29.74,South,180,0.0,0.0,70,0.00,CLR,,0.00,WeatherDisplay:10.37,2013-01-21 07:01:00,
2013-01-21 02:06:00,36.0,27.1,29.74,SE,135,1.2,0.0,70,0.00,CLR,,0.00,WeatherDisplay:10.37,2013-01-21 07:06:00,
2013-01-21 02:12:00,34.9,26.8,29.74,SE,135,1.2,0.0,72,0.00,CLR,,0.00,WeatherDisplay:10.37,2013-01-21 07:12:00,
2013-01-21 02:17:00,34.2,26.4,29.74,SE,135,0.0,0.0,73,0.00,CLR,,0.00,WeatherDisplay:10.37,2013-01-21 07:17:00,
2013-01-21 02:22:00,34.2,26.7,29.74,North,0,1.2,0.0,74,0.00,CLR,,0.00,WeatherDisplay:10.37,2013-01-21 07:22:00,
2013-01-21 02:27:00,34.7,27.6,29.74,North,0,1.2,0.0,75,0.00,CLR,,0.00,WeatherDisplay:10.37,2013-01-21 07:27:00,
2013-01-21 02:33:00,34.7,27.9,29.74,North,0,0.0,0.0,76,0.00,CLR,,0.00,WeatherDisplay:10.37,2013-01-21 07:33:00,
2013-01-21 02:38:00,34.5,27.7,29.74,North,0,0.0,0.0,76,0.00,CLR,,0.00,WeatherDisplay:10.37,2013-01-21 07:38:00,
2013-01-21 02:43:00,34.7,27.9,29.74,NW,315,1.2,1.2,76,0.00,CLR,,0.00,WeatherDisplay:10.37,2013-01-21 07:43:00,
2013-01-21 02:48:00,34.7,27.9,29.73,NW,315,1.2,1.2,76,0.00,CLR,,0.00,WeatherDisplay:10.37,2013-01-21 07:48:00,
2013-01-21 02:53:00,34.7,28.2,29.73,NW,315,1.2,0.0,77,0.00,CLR,,0.00,WeatherDisplay:10.37,2013-01-21 07:53:00,
2013-01-21 02:58:00,34.7,28.2,29.73,NW,315,1.2,0.0,77,0.00,CLR,,0.00,WeatherDisplay:10.37,2013-01-21 07:58:00,
2013-01-21 03:03:00,34.3,27.6,29.73,SE,135,0.0,0.0,76,0.00,CLR,,0.00,WeatherDisplay:10.37,2013-01-21 08:03:00,
2013-01-21 03:08:00,33.8,27.0,29.74,SE,135,0.0,0.0,76,0.00,CLR,,0.00,WeatherDisplay:10.37,2013-01-21 08:08:00,
2013-01-21 03:13:00,33.3,26.8,29.73,SE,135,0.0,0.0,77,0.00,CLR,,0.00,WeatherDisplay:10.37,2013-01-21 08:13:00,
2013-01-21 03:18:00,32.9,26.5,29.74,NW,315,0.0,0.0,77,0.00,CLR,,0.00,WeatherDisplay:10.37,2013-01-21 08:18:00,
2013-01-21 03:23:00,32.5,26.1,29.73,NW,315,0.0,0.0,77,0.00,CLR,,0.00,WeatherDisplay:10.37,2013-01-21 08:23:00,
2013-01-21 03:28:00,32.2,26.1,29.73,NW,315,0.0,0.0,78,0.00,CLR,,0.00,WeatherDisplay:10.37,2013-01-21 08:28:00,
2013-01-21 03:33:00,32.2,26.1,29.73,NW,315,1.2,1.2,78,0.00,CLR,,0.00,WeatherDisplay:10.37,2013-01-21 08:33:00,
2013-01-21 03:38:00,32.4,26.6,29.73,NW,315,0.0,0.0,79,0.00,CLR,,0.00,WeatherDisplay:10.37,2013-01-21 08:38:00,
2013-01-21 03:43:00,32.4,26.9,29.73,NW,315,0.0,0.0,80,0.00,CLR,,0.00,WeatherDisplay:10.37,2013-01-21 08:43:00,
2013-01-21 03:48:00,32.5,27.4,29.73,West,270,1.2,1.2,81,0.00,CLR,,0.00,WeatherDisplay:10.37,2013-01-21 08:48:00,
2013-01-21 03:53:00,32.9,28.3,29.73,West,270,1.2,0.0,83,0.00,CLR,,0.00,WeatherDisplay:10.37,2013-01-21 08:53:00,
2013-01-21 03:58:00,32.7,28.1,29.73,West,270,0.0,0.0,83,0.00,CLR,,0.00,WeatherDisplay:10.37,2013-01-21 08:58:00,
2013-01-21 04:03:00,32.5,28.0,29.73,West,270,0.0,0.0,83,0.00,CLR,,0.00,WeatherDisplay:10.37,2013-01-21 09:03:00,
2013-01-21 04:08:00,32.2,27.6,29.73,West,270,0.0,0.0,83,0.00,CLR,,0.00,WeatherDisplay:10.37,2013-01-21 09:08:00,
2013-01-21 04:13:00,31.8,27.5,29.73,West,270,1.2,1.2,84,0.00,CLR,,0.00,WeatherDisplay:10.37,2013-01-21 09:13:00,
2013-01-21 04:18:00,31.8,27.5,29.73,East,90,1.2,1.2,84,0.00,CLR,,0.00,WeatherDisplay:10.37,2013-01-21 09:18:00,
2013-01-21 04:23:00,31.8,27.5,29.73,NW,315,1.2,0.0,84,0.00,CLR,,0.00,WeatherDisplay:10.37,2013-01-21 09:23:00,
2013-01-21 04:28:00,32.0,27.4,29.73,NW,315,1.2,0.0,83,0.00,CLR,,0.00,WeatherDisplay:10.37,2013-01-21 09:28:00,
2013-01-21 04:33:00,32.2,27.6,29.73,West,270,1.2,1.2,83,0.00,CLR,,0.00,WeatherDisplay:10.37,2013-01-21 09:33:00,
2013-01-21 04:38:00,32.2,27.9,29.72,West,270,1.2,0.0,84,0.00,CLR,,0.00,WeatherDisplay:10.37,2013-01-21 09:38:00,
2013-01-21 04:43:00,32.0,27.7,29.72,West,270,0.0,0.0,84,0.00,CLR,,0.00,WeatherDisplay:10.37,2013-01-21 09:43:00,
2013-01-21 04:48:00,31.8,27.8,29.72,West,270,0.0,0.0,85,0.00,CLR,,0.00,WeatherDisplay:10.37,2013-01-21 09:48:00,
2013-01-21 04:53:00,31.3,27.3,29.73,SE,135,0.0,0.0,85,0.00,CLR,,0.00,WeatherDisplay:10.37,2013-01-21 09:53:00,
2013-01-21 04:58:00,30.7,26.5,29.73,SE,135,0.0,0.0,84,0.00,CLR,,0.00,WeatherDisplay:10.37,2013-01-21 09:58:00,
2013-01-21 05:03:00,30.2,25.9,29.73,SE,135,2.3,2.3,84,0.00,CLR,,0.00,WeatherDisplay:10.37,2013-01-21 10:03:00,
2013-01-21 05:08:00,30.2,26.2,29.73,SE,135,2.3,2.3,85,0.00,CLR,,0.00,WeatherDisplay:10.37,2013-01-21 10:08:00,
2013-01-21 05:13:00,30.2,26.2,29.73,SE,135,1.2,0.0,85,0.00,CLR,,0.00,WeatherDisplay:10.37,2013-01-21 10:13:00,
2013-01-21 05:18:00,30.2,26.2,29.73,West,270,1.2,0.0,85,0.00,CLR,,0.00,WeatherDisplay:10.37,2013-01-21 10:18:00,
2013-01-21 05:23:00,30.6,26.9,29.73,NW,315,1.2,1.2,86,0.00,CLR,,0.00,WeatherDisplay:10.37,2013-01-21 10:23:00,
2013-01-21 05:28:00,30.9,27.2,29.73,WNW,292,1.6,1.6,86,0.00,CLR,,0.00,WeatherDisplay:10.37,2013-01-21 10:28:00,
2013-01-21 05:33:00,31.1,27.4,29.73,NW,315,1.2,0.0,86,0.00,CLR,,0.00,WeatherDisplay:10.37,2013-01-21 10:33:00,
2013-01-21 05:38:00,30.9,27.2,29.73,SE,135,1.2,0.0,86,0.00,CLR,,0.00,WeatherDisplay:10.37,2013-01-21 10:38:00,
2013-01-21 05:43:00,30.6,26.9,29.73,SE,135,1.2,0.0,86,0.00,CLR,,0.00,WeatherDisplay:10.37,2013-01-21 10:43:00,
2013-01-21 05:48:00,30.0,26.6,29.73,SE,135,1.2,0.0,87,0.00,CLR,,0.00,WeatherDisplay:10.37,2013-01-21 10:48:00,
2013-01-21 05:53:00,29.5,26.1,29.73,SE,135,0.0,0.0,87,0.00,CLR,,0.00,WeatherDisplay:10.37,2013-01-21 10:53:00,
2013-01-21 05:58:00,29.1,25.5,29.73,NW,315,0.0,0.0,86,0.00,CLR,,0.00,WeatherDisplay:10.37,2013-01-21 10:58:00,
2013-01-21 06:03:00,29.3,25.6,29.73,NW,315,0.0,0.0,86,0.00,CLR,,0.00,WeatherDisplay:10.37,2013-01-21 11:03:00,
2013-01-21 06:08:00,29.7,26.3,29.73,NW,315,0.0,0.0,87,0.00,CLR,,0.00,WeatherDisplay:10.37,2013-01-21 11:08:00,
2013-01-21 06:13:00,29.8,26.4,29.73,NW,315,0.0,0.0,87,0.00,CLR,,0.00,WeatherDisplay:10.37,2013-01-21 11:13:00,
2013-01-21 06:18:00,30.0,26.6,29.73,NW,315,0.0,0.0,87,0.00,CLR,,0.00,WeatherDisplay:10.37,2013-01-21 11:18:00,
2013-01-21 06:23:00,30.2,26.5,29.73,NW,315,0.0,0.0,86,0.00,CLR,,0.00,WeatherDisplay:10.37,2013-01-21 11:23:00,
2013-01-21 06:28:00,30.0,26.6,29.73,NW,315,0.0,0.0,87,0.00,CLR,,0.00,WeatherDisplay:10.37,2013-01-21 11:28:00,
2013-01-21 06:33:00,29.7,26.3,29.73,NW,315,0.0,0.0,87,0.00,CLR,,0.00,WeatherDisplay:10.37,2013-01-21 11:33:00,
2013-01-21 06:38:00,29.8,26.4,29.73,NW,315,1.2,1.2,87,0.00,CLR,,0.00,WeatherDisplay:10.37,2013-01-21 11:38:00,
2013-01-21 06:43:00,30.2,26.5,29.73,West,270,1.6,1.6,86,0.00,CLR,,0.00,WeatherDisplay:10.37,2013-01-21 11:43:00,
2013-01-21 06:48:00,30.4,27.0,29.73,West,270,1.2,0.0,87,0.00,CLR,,0.00,WeatherDisplay:10.37,2013-01-21 11:48:00,
2013-01-21 06:53:00,30.4,27.0,29.73,West,270,0.0,0.0,87,0.00,CLR,,0.00,WeatherDisplay:10.37,2013-01-21 11:53:00,
2013-01-21 06:58:00,30.4,27.0,29.73,West,270,0.0,0.0,87,0.00,CLR,,0.00,WeatherDisplay:10.37,2013-01-21 11:58:00,
2013-01-21 07:03:00,29.8,26.7,29.73,SE,135,0.0,0.0,88,0.00,CLR,,0.00,WeatherDisplay:10.37,2013-01-21 12:03:00,
2013-01-21 07:08:00,29.7,26.5,29.73,SE,135,0.0,0.0,88,0.00,CLR,,0.00,WeatherDisplay:10.37,2013-01-21 12:08:00,
2013-01-21 07:13:00,29.5,26.4,29.73,SW,225,0.0,0.0,88,0.00,CLR,,0.00,WeatherDisplay:10.37,2013-01-21 12:13:00,
2013-01-21 07:18:00,29.3,25.9,29.73,SW,225,0.0,0.0,87,0.00,CLR,,0.00,WeatherDisplay:10.37,2013-01-21 12:18:00,
2013-01-21 07:23:00,29.1,25.7,29.73,SW,225,0.0,0.0,87,0.00,CLR,,0.00,WeatherDisplay:10.37,2013-01-21 12:23:00,
2013-01-21 07:28:00,29.1,25.7,29.73,SW,225,0.0,0.0,87,0.00,CLR,,0.00,WeatherDisplay:10.37,2013-01-21 12:28:00,
2013-01-21 07:33:00,29.3,25.9,29.73,SW,225,0.0,0.0,87,0.00,CLR,,0.00,WeatherDisplay:10.37,2013-01-21 12:33:00,
2013-01-21 07:38:00,29.8,26.7,29.73,South,180,0.0,0.0,88,0.00,CLR,,0.00,WeatherDisplay:10.37,2013-01-21 12:38:00,
2013-01-21 07:43:00,30.6,27.2,29.73,South,180,0.0,0.0,87,0.00,CLR,,0.00,WeatherDisplay:10.37,2013-01-21 12:43:00,
2013-01-21 07:48:00,31.3,27.9,29.73,South,180,0.0,0.0,87,0.00,CLR,,0.00,WeatherDisplay:10.37,2013-01-21 12:48:00,
2013-01-21 07:53:00,33.1,29.6,29.73,South,180,0.0,0.0,87,0.00,CLR,,0.00,WeatherDisplay:10.37,2013-01-21 12:53:00,
2013-01-21 07:58:00,35.2,31.5,29.72,South,180,1.2,0.0,86,0.00,CLR,,0.00,WeatherDisplay:10.37,2013-01-21 12:58:00,
2013-01-21 08:03:00,36.3,31.9,29.73,South,180,0.0,0.0,84,0.00,CLR,,0.00,WeatherDisplay:10.37,2013-01-21 13:03:00,
2013-01-21 08:08:00,37.6,34.3,29.73,South,180,0.0,0.0,88,0.00,CLR,,0.00,WeatherDisplay:10.37,2013-01-21 13:08:00,
2013-01-21 08:13:00,38.8,35.3,29.73,North,0,0.0,0.0,87,0.00,CLR,,0.00,WeatherDisplay:10.37,2013-01-21 13:13:00,
2013-01-21 08:18:00,40.6,36.2,29.74,North,0,0.0,0.0,84,0.00,CLR,,0.00,WeatherDisplay:10.37,2013-01-21 13:18:00,
2013-01-21 08:23:00,42.8,36.4,29.74,NW,315,1.2,0.0,78,0.00,CLR,,0.00,WeatherDisplay:10.37,2013-01-21 13:23:00,
2013-01-21 08:28:00,43.0,34.9,29.74,NW,315,0.0,0.0,73,0.00,CLR,,0.00,WeatherDisplay:10.37,2013-01-21 13:28:00,
2013-01-21 08:33:00,45.7,37.2,29.74,South,180,0.0,0.0,72,0.00,CLR,,0.00,WeatherDisplay:10.37,2013-01-21 13:33:00,
2013-01-21 08:38:00,47.5,37.4,29.74,SE,135,1.2,1.2,68,0.00,CLR,,0.00,WeatherDisplay:10.37,2013-01-21 13:38:00,
2013-01-21 08:43:00,48.0,37.2,29.74,West,270,0.0,0.0,66,0.00,CLR,,0.00,WeatherDisplay:10.37,2013-01-21 13:43:00,
2013-01-21 08:48:00,48.2,37.0,29.75,North,0,1.2,0.0,65,0.00,CLR,,0.00,WeatherDisplay:10.37,2013-01-21 13:48:00,
2013-01-21 08:53:00,50.4,38.2,29.74,East,90,1.2,0.0,63,0.00,CLR,,0.00,WeatherDisplay:10.37,2013-01-21 13:53:00,
2013-01-21 08:58:00,51.6,37.3,29.74,SE,135,2.3,2.3,58,0.00,CLR,,0.00,WeatherDisplay:10.37,2013-01-21 13:58:00,
2013-01-21 09:03:00,51.6,36.9,29.74,SE,135,1.2,0.0,57,0.00,CLR,,0.00,WeatherDisplay:10.37,2013-01-21 14:03:00,
2013-01-21 09:08:00,52.5,35.9,29.75,SE,135,1.2,0.0,53,0.00,CLR,,0.00,WeatherDisplay:10.37,2013-01-21 14:08:00,
2013-01-21 09:13:00,53.1,33.9,29.75,South,180,3.5,3.5,48,0.00,CLR,,0.00,WeatherDisplay:10.37,2013-01-21 14:13:00,
2013-01-21 09:18:00,52.2,32.5,29.75,SE,135,3.5,3.5,47,0.00,CLR,,0.00,WeatherDisplay:10.37,2013-01-21 14:18:00,
2013-01-21 09:23:00,51.4,31.3,29.74,South,180,2.3,2.3,46,0.00,CLR,,0.00,WeatherDisplay:10.37,2013-01-21 14:23:00,
2013-01-21 09:28:00,51.6,32.0,29.75,SE,135,4.6,4.6,47,0.00,CLR,,0.00,WeatherDisplay:10.37,2013-01-21 14:28:00,
2013-01-21 09:33:00,51.3,32.7,29.75,SSW,202,4.6,4.6,49,0.00,CLR,,0.00,WeatherDisplay:10.37,2013-01-21 14:33:00,
2013-01-21 09:38:00,51.4,31.9,29.75,East,90,3.5,3.5,47,0.00,CLR,,0.00,WeatherDisplay:10.37,2013-01-21 14:38:00,
2013-01-21 09:43:00,51.4,32.4,29.75,SE,135,4.6,4.6,48,0.00,CLR,,0.00,WeatherDisplay:10.37,2013-01-21 14:43:00,
2013-01-21 09:48:00,51.6,32.0,29.75,South,180,5.8,5.8,47,0.00,CLR,,0.00,WeatherDisplay:10.37,2013-01-21 14:48:00,
2013-01-21 09:53:00,51.8,31.7,29.75,SE,135,5.8,5.8,46,0.00,CLR,,0.00,WeatherDisplay:10.37,2013-01-21 14:53:00,
2013-01-21 09:58:00,51.4,31.9,29.75,SE,135,5.8,5.8,47,0.00,CLR,,0.00,WeatherDisplay:10.37,2013-01-21 14:58:00,
2013-01-21 10:03:00,51.8,32.2,29.75,South,180,6.9,6.9,47,0.00,CLR,,0.00,WeatherDisplay:10.37,2013-01-21 15:03:00,
2013-01-21 10:08:00,52.5,32.3,29.74,East,90,5.8,5.8,46,0.00,CLR,,0.00,WeatherDisplay:10.37,2013-01-21 15:08:00,
2013-01-21 10:13:00,52.5,30.6,29.73,SE,135,8.1,8.1,43,0.00,CLR,,0.00,WeatherDisplay:10.37,2013-01-21 15:13:00,
2013-01-21 10:18:00,53.2,32.4,29.73,SE,135,5.8,5.8,45,0.00,CLR,,0.00,WeatherDisplay:10.37,2013-01-21 15:18:00,
2013-01-21 10:23:00,54.1,32.1,29.73,SE,135,5.8,5.8,43,0.00,CLR,,0.00,WeatherDisplay:10.37,2013-01-21 15:23:00,
2013-01-21 10:28:00,53.8,29.4,29.73,SE,135,10.4,10.4,39,0.00,CLR,,0.00,WeatherDisplay:10.37,2013-01-21 15:28:00,
2013-01-21 10:33:00,54.0,30.8,29.73,ESE,112,9.2,9.2,41,0.00,CLR,,0.00,WeatherDisplay:10.37,2013-01-21 15:33:00,
2013-01-21 10:38:00,53.1,28.7,29.73,SE,135,9.2,9.2,39,0.00,CLR,,0.00,WeatherDisplay:10.37,2013-01-21 15:38:00,
2013-01-21 10:43:00,53.6,29.2,29.73,SE,135,8.1,8.1,39,0.00,CLR,,0.00,WeatherDisplay:10.37,2013-01-21 15:43:00,
2013-01-21 10:48:00,54.0,28.9,29.73,SE,135,11.5,11.5,38,0.00,CLR,,0.00,WeatherDisplay:10.37,2013-01-21 15:48:00,
2013-01-21 10:53:00,54.3,28.6,29.72,SE,135,9.2,9.2,37,0.00,CLR,,0.00,WeatherDisplay:10.37,2013-01-21 15:53:00,
2013-01-21 10:58:00,54.5,27.4,29.72,ESE,112,12.7,12.7,35,0.00,CLR,,0.00,WeatherDisplay:10.37,2013-01-21 15:58:00,
2013-01-21 11:03:00,54.9,29.1,29.71,East,90,11.5,11.5,37,0.00,CLR,,0.00,WeatherDisplay:10.37,2013-01-21 16:03:00,
2013-01-21 11:08:00,55.0,27.9,29.70,South,180,12.7,12.7,35,0.00,CLR,,0.00,WeatherDisplay:10.37,2013-01-21 16:08:00,
2013-01-21 11:13:00,55.4,28.9,29.70,SSE,158,8.1,8.1,36,0.00,CLR,,0.00,WeatherDisplay:10.37,2013-01-21 16:13:00,
2013-01-21 11:18:00,55.9,27.2,29.70,ESE,112,15.0,15.0,33,0.00,CLR,,0.00,WeatherDisplay:10.37,2013-01-21 16:18:00,
2013-01-21 11:23:00,56.1,28.8,29.70,South,180,10.4,10.4,35,0.00,CLR,,0.00,WeatherDisplay:10.37,2013-01-21 16:23:00,
2013-01-21 11:28:00,57.0,29.6,29.70,ESE,112,6.9,6.9,35,0.00,CLR,,0.00,WeatherDisplay:10.37,2013-01-21 16:28:00,
2013-01-21 11:33:00,57.6,27.1,29.69,SE,135,8.1,8.1,31,0.00,CLR,,0.00,WeatherDisplay:10.37,2013-01-21 16:33:00,
2013-01-21 11:38:00,58.8,29.0,29.69,South,180,11.5,11.5,32,0.00,CLR,,0.00,WeatherDisplay:10.37,2013-01-21 16:38:00,
2013-01-21 11:43:00,58.3,26.9,29.69,East,90,5.8,5.8,30,0.00,CLR,,0.00,WeatherDisplay:10.37,2013-01-21 16:43:00,
2013-01-21 11:48:00,58.1,26.0,29.68,East,90,8.1,8.1,29,0.00,CLR,,0.00,WeatherDisplay:10.37,2013-01-21 16:48:00,
2013-01-21 11:53:00,58.5,28.7,29.68,SE,135,8.1,8.1,32,0.00,CLR,,0.00,WeatherDisplay:10.37,2013-01-21 16:53:00,
2013-01-21 11:58:00,58.6,26.4,29.68,SE,135,8.1,8.1,29,0.00,CLR,,0.00,WeatherDisplay:10.37,2013-01-21 16:58:00,
2013-01-21 12:03:00,57.9,26.6,29.67,SE,135,10.4,10.4,30,0.00,CLR,,0.00,WeatherDisplay:10.37,2013-01-21 17:03:00,
2013-01-21 12:08:00,58.5,26.3,29.67,ESE,112,8.1,8.1,29,0.00,CLR,,0.00,WeatherDisplay:10.37,2013-01-21 17:08:00,
2013-01-21 12:13:00,59.0,29.9,29.66,ESE,112,9.2,9.2,33,0.00,CLR,,0.00,WeatherDisplay:10.37,2013-01-21 17:13:00,
2013-01-21 12:18:00,58.8,27.4,29.66,East,90,8.1,8.1,30,0.00,CLR,,0.00,WeatherDisplay:10.37,2013-01-21 17:18:00,
2013-01-21 12:23:00,59.5,27.2,29.65,SE,135,9.2,9.2,29,0.00,CLR,,0.00,WeatherDisplay:10.37,2013-01-21 17:23:00,
2013-01-21 12:28:00,60.3,26.1,29.65,SE,135,8.1,8.1,27,0.00,CLR,,0.00,WeatherDisplay:10.37,2013-01-21 17:28:00,
2013-01-21 12:33:00,60.4,26.3,29.65,NW,315,8.1,8.1,27,0.00,CLR,,0.00,WeatherDisplay:10.37,2013-01-21 17:33:00,
2013-01-21 12:38:00,61.0,25.8,29.65,East,90,3.5,3.5,26,0.00,CLR,,0.00,WeatherDisplay:10.37,2013-01-21 17:38:00,
2013-01-21 12:43:00,62.2,26.9,29.64,SE,135,5.8,5.8,26,0.00,CLR,,0.00,WeatherDisplay:10.37,2013-01-21 17:43:00,
2013-01-21 12:48:00,62.8,26.4,29.63,North,0,3.5,3.5,25,0.00,CLR,,0.00,WeatherDisplay:10.37,2013-01-21 17:48:00,
2013-01-21 12:53:00,62.1,23.8,29.63,SE,135,4.6,4.6,23,0.00,CLR,,0.00,WeatherDisplay:10.37,2013-01-21 17:53:00,
2013-01-21 12:58:00,61.7,23.5,29.62,SE,135,8.1,8.1,23,0.00,CLR,,0.00,WeatherDisplay:10.37,2013-01-21 17:58:00,
2013-01-21 13:03:00,60.1,23.1,29.62,NW,315,6.9,6.9,24,0.00,CLR,,0.00,WeatherDisplay:10.37,2013-01-21 18:03:00,
2013-01-21 13:08:00,59.7,24.7,29.62,SE,135,4.6,4.6,26,0.00,CLR,,0.00,WeatherDisplay:10.37,2013-01-21 18:08:00,
2013-01-21 13:13:00,60.3,24.3,29.62,NE,45,6.9,6.9,25,0.00,CLR,,0.00,WeatherDisplay:10.37,2013-01-21 18:13:00,
2013-01-21 13:18:00,60.4,25.4,29.62,NW,315,3.5,3.5,26,0.00,CLR,,0.00,WeatherDisplay:10.37,2013-01-21 18:18:00,
2013-01-21 13:23:00,60.3,25.2,29.62,East,90,3.5,3.5,26,0.00,CLR,,0.00,WeatherDisplay:10.37,2013-01-21 18:23:00,
2013-01-21 13:28:00,59.7,23.8,29.61,North,0,8.1,8.1,25,0.00,CLR,,0.00,WeatherDisplay:10.37,2013-01-21 18:28:00,
2013-01-21 13:33:00,59.4,23.5,29.61,NW,315,5.8,6.0,25,0.00,CLR,,0.00,WeatherDisplay:10.37,2013-01-21 18:33:00,
2013-01-21 13:38:00,59.4,24.4,29.61,SE,135,3.5,4.5,26,0.00,CLR,,0.00,WeatherDisplay:10.37,2013-01-21 18:38:00,
2013-01-21 13:43:00,59.9,25.8,29.61,North,0,2.3,2.3,27,0.00,CLR,,0.00,WeatherDisplay:10.37,2013-01-21 18:43:00,
2013-01-21 13:48:00,60.1,25.0,29.60,East,90,5.8,5.8,26,0.00,CLR,,0.00,WeatherDisplay:10.37,2013-01-21 18:48:00,
2013-01-21 13:53:00,59.9,23.9,29.60,NE,45,10.4,10.4,25,0.00,CLR,,0.00,WeatherDisplay:10.37,2013-01-21 18:53:00,
2013-01-21 13:58:00,60.1,25.0,29.60,SSE,158,8.1,8.1,26,0.00,CLR,,0.00,WeatherDisplay:10.37,2013-01-21 18:58:00,
2013-01-21 14:03:00,59.9,23.9,29.59,East,90,6.9,6.9,25,0.00,CLR,,0.00,WeatherDisplay:10.37,2013-01-21 19:03:00,
2013-01-21 14:08:00,59.9,24.9,29.59,NE,45,2.3,2.3,26,0.00,CLR,,0.00,WeatherDisplay:10.37,2013-01-21 19:08:00,
2013-01-21 14:13:00,60.1,25.0,29.59,North,0,4.6,4.6,26,0.00,CLR,,0.00,WeatherDisplay:10.37,2013-01-21 19:13:00,
2013-01-21 14:18:00,59.9,24.9,29.59,East,90,3.5,3.5,26,0.00,CLR,,0.00,WeatherDisplay:10.37,2013-01-21 19:18:00,
2013-01-21 14:23:00,59.9,24.9,29.59,SE,135,5.8,5.8,26,0.00,CLR,,0.00,WeatherDisplay:10.37,2013-01-21 19:23:00,
2013-01-21 14:28:00,60.3,25.2,29.58,NE,45,4.6,4.6,26,0.00,CLR,,0.00,WeatherDisplay:10.37,2013-01-21 19:28:00,
2013-01-21 14:33:00,60.3,26.1,29.58,North,0,5.8,5.8,27,0.00,CLR,,0.00,WeatherDisplay:10.37,2013-01-21 19:33:00,
2013-01-21 14:38:00,60.3,26.1,29.58,NNW,338,5.8,5.8,27,0.00,CLR,,0.00,WeatherDisplay:10.37,2013-01-21 19:38:00,
2013-01-21 14:43:00,59.9,25.8,29.58,NE,45,4.6,4.6,27,0.00,CLR,,0.00,WeatherDisplay:10.37,2013-01-21 19:43:00,
2013-01-21 14:48:00,59.9,26.7,29.57,NE,45,9.2,9.2,28,0.00,CLR,,0.00,WeatherDisplay:10.37,2013-01-21 19:48:00,
2013-01-21 14:53:00,59.9,25.8,29.57,East,90,4.6,4.6,27,0.00,CLR,,0.00,WeatherDisplay:10.37,2013-01-21 19:53:00,
2013-01-21 14:58:00,59.9,28.4,29.57,East,90,6.9,6.9,30,0.00,CLR,,0.00,WeatherDisplay:10.37,2013-01-21 19:58:00,
2013-01-21 15:03:00,59.7,26.5,29.57,NE,45,3.5,3.8,28,0.00,CLR,,0.00,WeatherDisplay:10.37,2013-01-21 20:03:00,
2013-01-21 15:08:00,59.7,26.5,29.57,NE,45,8.1,8.1,28,0.00,CLR,,0.00,WeatherDisplay:10.37,2013-01-21 20:08:00,
2013-01-21 15:13:00,60.1,27.7,29.56,East,90,11.5,11.5,29,0.00,CLR,,0.00,WeatherDisplay:10.37,2013-01-21 20:13:00,
2013-01-21 15:18:00,59.7,26.5,29.55,SE,135,8.1,8.1,28,0.00,CLR,,0.00,WeatherDisplay:10.37,2013-01-21 20:18:00,
2013-01-21 15:23:00,59.9,28.4,29.55,ESE,112,10.4,10.4,30,0.00,CLR,,0.00,WeatherDisplay:10.37,2013-01-21 20:23:00,
2013-01-21 15:28:00,60.1,29.3,29.56,NE,45,3.5,3.5,31,0.00,CLR,,0.00,WeatherDisplay:10.37,2013-01-21 20:28:00,
2013-01-21 15:33:00,59.7,28.2,29.56,SW,225,4.6,4.6,30,0.00,CLR,,0.00,WeatherDisplay:10.37,2013-01-21 20:33:00,
2013-01-21 15:38:00,59.5,28.8,29.56,NE,45,6.9,6.9,31,0.00,CLR,,0.00,WeatherDisplay:10.37,2013-01-21 20:38:00,
2013-01-21 15:43:00,59.5,28.0,29.56,NE,45,3.5,3.5,30,0.00,CLR,,0.00,WeatherDisplay:10.37,2013-01-21 20:43:00,
2013-01-21 15:48:00,59.2,28.5,29.56,East,90,4.6,4.6,31,0.00,CLR,,0.00,WeatherDisplay:10.37,2013-01-21 20:48:00,
2013-01-21 15:53:00,59.2,29.3,29.56,East,90,3.5,3.5,32,0.00,CLR,,0.00,WeatherDisplay:10.37,2013-01-21 20:53:00,
2013-01-21 15:58:00,59.0,29.2,29.56,East,90,3.5,3.5,32,0.00,CLR,,0.00,WeatherDisplay:10.37,2013-01-21 20:58:00,
2013-01-21 16:03:00,58.6,29.6,29.55,NE,45,6.9,6.9,33,0.00,CLR,,0.00,WeatherDisplay:10.37,2013-01-21 21:03:00,
2013-01-21 16:08:00,58.6,30.3,29.55,SE,135,3.5,3.5,34,0.00,CLR,,0.00,WeatherDisplay:10.37,2013-01-21 21:08:00,
2013-01-21 16:13:00,58.6,30.3,29.55,NW,315,3.5,3.5,34,0.00,CLR,,0.00,WeatherDisplay:10.37,2013-01-21 21:13:00,
2013-01-21 16:18:00,58.6,30.3,29.55,North,0,3.5,3.5,34,0.00,CLR,,0.00,WeatherDisplay:10.37,2013-01-21 21:18:00,
2013-01-21 16:23:00,58.6,30.3,29.55,North,0,2.3,2.3,34,0.00,CLR,,0.00,WeatherDisplay:10.37,2013-01-21 21:23:00,
2013-01-21 16:28:00,58.5,30.2,29.55,SW,225,2.3,2.3,34,0.00,CLR,,0.00,WeatherDisplay:10.37,2013-01-21 21:28:00,
2013-01-21 16:33:00,58.1,29.8,29.55,North,0,6.9,6.9,34,0.00,CLR,,0.00,WeatherDisplay:10.37,2013-01-21 21:33:00,
2013-01-21 16:38:00,57.9,29.7,29.55,SE,135,3.5,3.5,34,0.00,CLR,,0.00,WeatherDisplay:10.37,2013-01-21 21:38:00,
2013-01-21 16:43:00,57.7,30.2,29.54,NE,45,3.5,3.5,35,0.00,CLR,,0.00,WeatherDisplay:10.37,2013-01-21 21:43:00,
2013-01-21 16:48:00,57.4,29.9,29.55,East,90,1.2,1.2,35,0.00,CLR,,0.00,WeatherDisplay:10.37,2013-01-21 21:48:00,
2013-01-21 16:53:00,57.2,30.5,29.54,NE,45,2.3,2.3,36,0.00,CLR,,0.00,WeatherDisplay:10.37,2013-01-21 21:53:00,
2013-01-21 16:58:00,56.8,30.8,29.54,North,0,2.3,2.3,37,0.00,CLR,,0.00,WeatherDisplay:10.37,2013-01-21 21:58:00,
2013-01-21 17:03:00,56.5,30.5,29.54,East,90,3.5,3.5,37,0.00,CLR,,0.00,WeatherDisplay:10.37,2013-01-21 22:03:00,
2013-01-21 17:08:00,56.1,31.5,29.54,SE,135,1.2,2.2,39,0.00,CLR,,0.00,WeatherDisplay:10.37,2013-01-21 22:08:00,
2013-01-21 17:13:00,55.4,30.8,29.54,East,90,1.2,1.2,39,0.00,CLR,,0.00,WeatherDisplay:10.37,2013-01-21 22:13:00,
2013-01-21 17:18:00,55.2,31.9,29.54,East,90,1.2,0.0,41,0.00,CLR,,0.00,WeatherDisplay:10.37,2013-01-21 22:18:00,
2013-01-21 17:23:00,54.9,31.6,29.54,SE,135,2.3,2.3,41,0.00,CLR,,0.00,WeatherDisplay:10.37,2013-01-21 22:23:00,
2013-01-21 17:28:00,54.5,31.3,29.53,SE,135,3.5,3.5,41,0.00,CLR,,0.00,WeatherDisplay:10.37,2013-01-21 22:28:00,
2013-01-21 17:33:00,53.6,31.0,29.54,SE,135,0.0,0.0,42,0.00,CLR,,0.00,WeatherDisplay:10.37,2013-01-21 22:33:00,
2013-01-21 17:38:00,52.7,30.8,29.54,SE,135,0.0,0.0,43,0.00,CLR,,0.00,WeatherDisplay:10.37,2013-01-21 22:38:00,
2013-01-21 17:43:00,52.3,31.0,29.53,SE,135,1.2,1.2,44,0.00,CLR,,0.00,WeatherDisplay:10.37,2013-01-21 22:43:00,
2013-01-21 17:48:00,52.0,30.7,29.53,SE,135,1.2,1.2,44,0.00,CLR,,0.00,WeatherDisplay:10.37,2013-01-21 22:48:00,
2013-01-21 17:53:00,51.1,31.5,29.53,East,90,1.2,0.0,47,0.00,CLR,,0.00,WeatherDisplay:10.37,2013-01-21 22:53:00,
2013-01-21 17:58:00,51.1,32.1,29.53,NE,45,1.2,0.0,48,0.00,CLR,,0.00,WeatherDisplay:10.37,2013-01-21 22:58:00,
2013-01-21 18:03:00,51.3,32.7,29.53,East,90,2.3,0.0,49,0.00,CLR,,0.00,WeatherDisplay:10.37,2013-01-21 23:03:00,
2013-01-21 18:08:00,50.0,32.1,29.54,SE,135,0.0,0.0,50,0.00,CLR,,0.00,WeatherDisplay:10.37,2013-01-21 23:08:00,
2013-01-21 18:13:00,48.9,33.0,29.54,North,0,1.2,0.0,54,0.00,CLR,,0.00,WeatherDisplay:10.37,2013-01-21 23:13:00,
2013-01-21 18:18:00,48.6,33.1,29.55,NW,315,1.2,0.0,55,0.00,CLR,,0.00,WeatherDisplay:10.37,2013-01-21 23:18:00,
2013-01-21 18:23:00,48.4,32.5,29.55,East,90,0.0,0.0,54,0.00,CLR,,0.00,WeatherDisplay:10.37,2013-01-21 23:23:00,
2013-01-21 18:28:00,48.2,32.3,29.55,NE,45,1.2,0.0,54,0.00,CLR,,0.00,WeatherDisplay:10.37,2013-01-21 23:28:00,
2013-01-21 18:33:00,49.3,33.3,29.55,NE,45,2.3,2.3,54,0.00,CLR,,0.00,WeatherDisplay:10.37,2013-01-21 23:33:00,
2013-01-21 18:38:00,50.0,32.6,29.55,North,0,1.6,1.6,51,0.00,CLR,,0.00,WeatherDisplay:10.37,2013-01-21 23:38:00,
2013-01-21 18:43:00,50.4,32.4,29.55,NE,45,2.3,2.3,50,0.00,CLR,,0.00,WeatherDisplay:10.37,2013-01-21 23:43:00,
2013-01-21 18:48:00,50.4,31.9,29.55,NE,45,1.6,1.6,49,0.00,CLR,,0.00,WeatherDisplay:10.37,2013-01-21 23:48:00,
2013-01-21 18:53:00,50.4,31.9,29.55,NE,45,1.2,1.2,49,0.00,CLR,,0.00,WeatherDisplay:10.37,2013-01-21 23:53:00,
2013-01-21 18:58:00,50.0,31.6,29.55,East,90,1.2,1.2,49,0.00,CLR,,0.00,WeatherDisplay:10.37,2013-01-21 23:58:00,
2013-01-21 19:03:00,49.5,32.6,29.55,SE,135,2.3,2.3,52,0.00,CLR,,0.00,WeatherDisplay:10.37,2013-01-22 00:03:00,
2013-01-21 19:08:00,48.7,32.8,29.55,SE,135,2.3,2.3,54,0.00,CLR,,0.00,WeatherDisplay:10.37,2013-01-22 00:08:00,
2013-01-21 19:13:00,48.0,32.6,29.55,East,90,1.2,1.2,55,0.00,CLR,,0.00,WeatherDisplay:10.37,2013-01-22 00:13:00,
2013-01-21 19:18:00,48.2,32.3,29.55,SE,135,1.2,0.0,54,0.00,CLR,,0.00,WeatherDisplay:10.37,2013-01-22 00:18:00,
2013-01-21 19:23:00,48.0,32.6,29.54,North,0,1.2,0.0,55,0.00,CLR,,0.00,WeatherDisplay:10.37,2013-01-22 00:23:00,
2013-01-21 19:28:00,47.5,32.1,29.55,North,0,0.0,0.0,55,0.00,CLR,,0.00,WeatherDisplay:10.37,2013-01-22 00:28:00,
2013-01-21 19:33:00,47.3,31.9,29.55,North,0,0.0,0.0,55,0.00,CLR,,0.00,WeatherDisplay:10.37,2013-01-22 00:33:00,
2013-01-21 19:38:00,46.8,31.9,29.55,NE,45,1.2,0.0,56,0.00,CLR,,0.00,WeatherDisplay:10.37,2013-01-22 00:38:00,
2013-01-21 19:43:00,46.8,31.9,29.55,NE,45,1.2,1.2,56,0.00,CLR,,0.00,WeatherDisplay:10.37,2013-01-22 00:43:00,
2013-01-21 19:48:00,47.8,32.4,29.55,NE,45,2.3,0.0,55,0.00,CLR,,0.00,WeatherDisplay:10.37,2013-01-22 00:48:00,
2013-01-21 19:53:00,48.6,32.2,29.55,East,90,2.3,2.3,53,0.00,CLR,,0.00,WeatherDisplay:10.37,2013-01-22 00:53:00,
2013-01-21 19:58:00,49.1,32.2,29.55,East,90,2.3,2.3,52,0.00,CLR,,0.00,WeatherDisplay:10.37,2013-01-22 00:58:00,
2013-01-21 20:03:00,49.3,32.4,29.56,North,0,1.2,0.0,52,0.00,CLR,,0.00,WeatherDisplay:10.37,2013-01-22 01:03:00,
2013-01-21 20:08:00,49.5,32.1,29.55,NE,45,3.5,3.5,51,0.00,CLR,,0.00,WeatherDisplay:10.37,2013-01-22 01:08:00,
2013-01-21 20:13:00,49.8,31.9,29.55,NW,315,4.6,4.6,50,0.00,CLR,,0.00,WeatherDisplay:10.37,2013-01-22 01:13:00,
2013-01-21 20:18:00,49.8,31.9,29.55,NW,315,3.5,3.5,50,0.00,CLR,,0.00,WeatherDisplay:10.37,2013-01-22 01:18:00,
2013-01-21 20:23:00,49.5,32.1,29.57,NW,315,5.8,5.8,51,0.00,CLR,,0.00,WeatherDisplay:10.37,2013-01-22 01:23:00,
2013-01-21 20:28:00,49.6,31.7,29.57,North,0,4.6,4.6,50,0.00,CLR,,0.00,WeatherDisplay:10.37,2013-01-22 01:28:00,
2013-01-21 20:33:00,49.5,32.1,29.57,North,0,3.5,0.0,51,0.00,CLR,,0.00,WeatherDisplay:10.37,2013-01-22 01:33:00,
2013-01-21 20:38:00,48.9,32.0,29.57,SE,135,1.2,0.0,52,0.00,CLR,,0.00,WeatherDisplay:10.37,2013-01-22 01:38:00,
2013-01-21 20:43:00,48.7,31.9,29.57,SE,135,2.3,2.3,52,0.00,CLR,,0.00,WeatherDisplay:10.37,2013-01-22 01:43:00,
2013-01-21 20:48:00,48.9,32.0,29.57,NW,315,2.3,0.0,52,0.00,CLR,,0.00,WeatherDisplay:10.37,2013-01-22 01:48:00,
2013-01-21 20:53:00,48.4,31.5,29.58,North,0,1.2,0.0,52,0.00,CLR,,0.00,WeatherDisplay:10.37,2013-01-22 01:53:00,
2013-01-21 20:58:00,48.2,31.4,29.58,West,270,2.3,2.3,52,0.00,CLR,,0.00,WeatherDisplay:10.37,2013-01-22 01:58:00,
2013-01-21 21:03:00,48.6,31.2,29.59,NW,315,3.5,3.5,51,0.00,CLR,,0.00,WeatherDisplay:10.37,2013-01-22 02:03:00,
2013-01-21 21:08:00,48.9,31.1,29.59,NW,315,3.5,3.5,50,0.00,CLR,,0.00,WeatherDisplay:10.37,2013-01-22 02:08:00,
2013-01-21 21:13:00,48.9,30.6,29.59,NW,315,3.5,3.5,49,0.00,CLR,,0.00,WeatherDisplay:10.37,2013-01-22 02:13:00,
2013-01-21 21:18:00,49.1,30.2,29.59,West,270,3.5,3.5,48,0.00,CLR,,0.00,WeatherDisplay:10.37,2013-01-22 02:18:00,
2013-01-21 21:23:00,49.8,29.3,29.60,NW,315,13.8,13.8,45,0.00,CLR,,0.00,WeatherDisplay:10.37,2013-01-22 02:23:00,
2013-01-21 21:28:00,50.2,26.8,29.59,NW,315,9.2,9.2,40,0.00,CLR,,0.00,WeatherDisplay:10.37,2013-01-22 02:28:00,
2013-01-21 21:33:00,50.2,24.2,29.59,NW,315,11.5,11.5,36,0.00,CLR,,0.00,WeatherDisplay:10.37,2013-01-22 02:33:00,
2013-01-21 21:38:00,50.4,23.0,29.60,NW,315,12.7,12.7,34,0.00,CLR,,0.00,WeatherDisplay:10.37,2013-01-22 02:38:00,
2013-01-21 21:43:00,50.2,22.9,29.60,East,90,5.8,5.8,34,0.00,CLR,,0.00,WeatherDisplay:10.37,2013-01-22 02:43:00,
2013-01-21 21:48:00,50.0,19.7,29.60,NW,315,11.5,11.5,30,0.00,CLR,,0.00,WeatherDisplay:10.37,2013-01-22 02:48:00,
2013-01-21 21:53:00,50.0,18.1,29.60,NW,315,4.6,5.4,28,0.00,CLR,,0.00,WeatherDisplay:10.37,2013-01-22 02:53:00,
2013-01-21 21:58:00,49.6,17.8,29.60,NW,315,12.7,12.7,28,0.00,CLR,,0.00,WeatherDisplay:10.37,2013-01-22 02:58:00,
2013-01-21 22:03:00,49.5,16.8,29.60,NW,315,8.1,8.1,27,0.00,CLR,,0.00,WeatherDisplay:10.37,2013-01-22 03:03:00,
2013-01-21 22:08:00,49.3,16.7,29.60,NW,315,8.1,8.1,27,0.00,CLR,,0.00,WeatherDisplay:10.37,2013-01-22 03:08:00,
2013-01-21 22:13:00,48.9,16.4,29.60,NW,315,5.8,5.8,27,0.00,CLR,,0.00,WeatherDisplay:10.37,2013-01-22 03:13:00,
2013-01-21 22:18:00,48.6,16.0,29.60,NW,315,4.6,6.0,27,0.00,CLR,,0.00,WeatherDisplay:10.37,2013-01-22 03:18:00,
2013-01-21 22:23:00,48.7,16.2,29.61,NW,315,4.6,4.6,27,0.00,CLR,,0.00,WeatherDisplay:10.37,2013-01-22 03:23:00,
2013-01-21 22:28:00,48.6,16.0,29.60,West,270,9.2,9.2,27,0.00,CLR,,0.00,WeatherDisplay:10.37,2013-01-22 03:28:00,
2013-01-21 22:33:00,48.6,16.0,29.61,NW,315,11.5,11.5,27,0.00,CLR,,0.00,WeatherDisplay:10.37,2013-01-22 03:33:00,
2013-01-21 22:38:00,48.4,15.9,29.61,NW,315,10.4,10.4,27,0.00,CLR,,0.00,WeatherDisplay:10.37,2013-01-22 03:38:00,
2013-01-21 22:43:00,48.0,16.4,29.61,North,0,9.2,9.2,28,0.00,CLR,,0.00,WeatherDisplay:10.37,2013-01-22 03:43:00,
2013-01-21 22:48:00,47.8,16.3,29.61,NW,315,6.9,6.9,28,0.00,CLR,,0.00,WeatherDisplay:10.37,2013-01-22 03:48:00,
2013-01-21 22:53:00,47.8,15.4,29.61,East,90,8.1,8.1,27,0.00,CLR,,0.00,WeatherDisplay:10.37,2013-01-22 03:53:00,
2013-01-21 22:58:00,47.8,16.3,29.61,NW,315,5.8,5.8,28,0.00,CLR,,0.00,WeatherDisplay:10.37,2013-01-22 03:58:00,
2013-01-21 23:03:00,47.5,15.9,29.61,West,270,5.8,5.8,28,0.00,CLR,,0.00,WeatherDisplay:10.37,2013-01-22 04:03:00,
2013-01-21 23:08:00,47.1,15.6,29.61,NW,315,4.6,4.6,28,0.00,CLR,,0.00,WeatherDisplay:10.37,2013-01-22 04:08:00,
2013-01-21 23:13:00,46.9,15.5,29.61,NW,315,8.1,8.1,28,0.00,CLR,,0.00,WeatherDisplay:10.37,2013-01-22 04:13:00,
2013-01-21 23:18:00,46.9,15.5,29.61,West,270,8.1,8.1,28,0.00,CLR,,0.00,WeatherDisplay:10.37,2013-01-22 04:18:00,
2013-01-21 23:23:00,46.8,15.3,29.61,West,270,9.2,9.2,28,0.00,CLR,,0.00,WeatherDisplay:10.37,2013-01-22 04:23:00,
2013-01-21 23:28:00,46.4,15.0,29.61,North,0,9.2,9.2,28,0.00,CLR,,0.00,WeatherDisplay:10.37,2013-01-22 04:28:00,
2013-01-21 23:33:00,46.0,13.0,29.61,WNW,292,8.3,8.3,26,0.00,CLR,,0.00,WeatherDisplay:10.37,2013-01-22 04:33:00,
2013-01-21 23:38:00,46.0,13.0,29.61,NW,315,5.8,5.8,26,0.00,CLR,,0.00,WeatherDisplay:10.37,2013-01-22 04:38:00,
2013-01-21 23:43:00,45.9,13.7,29.61,NW,315,4.6,4.6,27,0.00,CLR,,0.00,WeatherDisplay:10.37,2013-01-22 04:43:00,
2013-01-21 23:48:00,45.5,13.4,29.61,West,270,2.3,2.3,27,0.00,CLR,,0.00,WeatherDisplay:10.37,2013-01-22 04:48:00,
2013-01-21 23:53:00,45.0,12.9,29.61,NW,315,4.6,4.6,27,0.00,CLR,,0.00,WeatherDisplay:10.37,2013-01-22 04:53:00,
2013-01-21 23:58:00,44.8,12.8,29.62,NW,315,4.6,4.6,27,0.00,CLR,,0.00,WeatherDisplay:10.37,2013-01-22 04:58:00,